timestamp,surface_pressure_avg,surface_temp_avg,battery_voltage,lat,long
2022-05-19 00:09:00+00:00,349.3297,7.2,11.86,47.84626,-54.09684
2022-05-19 00:19:00+00:00,354.8396,7.2,11.86,47.84626,-54.09684
2022-05-19 00:29:00+00:00,360.5829,7.2,11.86,47.84626,-54.09684
2022-05-19 00:39:00+00:00,367.3263,7.2,11.86,47.84626,-54.09684
2022-05-19 00:49:00+00:00,372.4612,7.2,11.86,47.84626,-54.09684
2022-05-19 00:59:00+00:00,377.7979,7.2,11.86,47.84626,-54.09684
2022-05-19 01:09:00+00:00,379.7845,7.19,11.86,47.84626,-54.09684
2022-05-19 01:19:01+00:00,378.9913,7.19,11.86,47.84626,-54.09684
2022-05-19 01:29:01+00:00,381.6829,7.18,11.86,47.84626,-54.09684
2022-05-19 01:39:01+00:00,383.4396,7.16,11.86,47.84626,-54.09684
2022-05-19 01:49:01+00:00,381.3378,7.14,11.86,47.84626,-54.09684
2022-05-19 01:59:01+00:00,381.1013,7.1,11.86,47.84626,-54.09684
2022-05-19 02:09:01+00:00,382.1279,7.1,11.86,47.84626,-54.09684
2022-05-19 02:19:00+00:00,379.6429,7.1,11.86,47.84626,-54.09684
2022-05-19 02:29:00+00:00,375.1046,7.1,11.86,47.84626,-54.09684
2022-05-19 02:39:00+00:00,373.9546,7.1,11.86,47.84626,-54.09684
2022-05-19 02:49:00+00:00,375.8746,7.1,11.86,47.84626,-54.09684
2022-05-19 02:59:00+00:00,373.5196,7.1,11.86,47.84626,-54.09684
2022-05-19 03:09:00+00:00,367.5397,7.1,11.86,47.84626,-54.09684
2022-05-19 03:19:00+00:00,365.7445,7.1,11.86,47.84626,-54.09684
2022-05-19 03:29:00+00:00,359.4846,7.1,11.86,47.84626,-54.09684
2022-05-19 03:39:00+00:00,350.0013,7.1,11.86,47.84626,-54.09684
2022-05-19 03:49:00+00:00,342.8212,7.11,11.86,47.84626,-54.09684
2022-05-19 03:59:00+00:00,336.67800000000005,7.12,11.86,47.84626,-54.09684
2022-05-19 04:09:00+00:00,324.0947,7.13,11.86,47.84626,-54.09684
2022-05-19 04:19:00+00:00,314.3563,7.14,11.86,47.84626,-54.09684
2022-05-19 04:29:00+00:00,306.5613,7.15,11.86,47.84626,-54.09684
2022-05-19 04:39:00+00:00,294.123,7.17,11.86,47.84626,-54.09684
2022-05-19 04:49:00+00:00,282.9114,7.19,11.86,47.84626,-54.09684
2022-05-19 04:59:00+00:00,275.7531,7.18,11.86,47.84626,-54.09684
2022-05-19 05:09:00+00:00,265.3514,7.19,11.86,47.84626,-54.09684
2022-05-19 05:19:00+00:00,253.1214,7.2,11.86,47.84626,-54.09684
2022-05-19 05:29:00+00:00,246.3214,7.2,11.86,47.84626,-54.09684
2022-05-19 05:39:00+00:00,237.9564,7.2,11.86,47.84626,-54.09684
2022-05-19 05:49:00+00:00,224.2164,7.23,11.86,47.84626,-54.09684
2022-05-19 05:59:00+00:00,212.7165,7.3,11.86,47.84626,-54.09684
2022-05-19 06:09:00+00:00,209.0515,7.35,11.86,47.84626,-54.09684
2022-05-19 06:19:00+00:00,203.7981,7.4,11.86,47.84626,-54.09684
2022-05-19 06:29:00+00:00,196.6797,7.4,11.86,47.84626,-54.09684
2022-05-19 06:39:00+00:00,193.0065,7.4,11.86,47.84626,-54.09684
2022-05-19 06:49:00+00:00,191.8548,7.4,11.86,47.84626,-54.09684
2022-05-19 06:59:00+00:00,188.4665,7.4,11.86,47.84626,-54.09684
2022-05-19 07:09:00+00:00,186.3498,7.4,11.86,47.84626,-54.09684
2022-05-19 07:19:00+00:00,185.8981,7.4,11.77,47.84626,-54.09684
2022-05-19 07:29:00+00:00,183.7881,7.4,11.77,47.84626,-54.09684
2022-05-19 07:39:00+00:00,186.5415,7.4,11.77,47.84626,-54.09684
2022-05-19 07:49:00+00:00,191.0148,7.4,11.77,47.84626,-54.09684
2022-05-19 07:59:00+00:00,192.3231,7.4,11.77,47.84626,-54.09684
2022-05-19 08:09:00+00:00,191.8131,7.43,11.77,47.84626,-54.09684
2022-05-19 08:19:00+00:00,195.0931,7.41,11.77,47.84626,-54.09684
2022-05-19 08:29:00+00:00,198.8448,7.45,11.77,47.84626,-54.09684
2022-05-19 08:39:00+00:00,199.0548,7.47,11.77,47.84626,-54.09684
2022-05-19 08:49:00+00:00,202.2714,7.47,11.77,47.84626,-54.09684
2022-05-19 08:59:00+00:00,207.7148,7.48,11.77,47.84626,-54.09684
2022-05-19 09:09:00+00:00,209.0931,7.48,11.77,47.84626,-54.09684
2022-05-19 09:19:00+00:00,210.1165,7.46,11.77,47.84626,-54.09684
2022-05-19 09:29:00+00:00,212.0481,7.46,11.77,47.84626,-54.09684
2022-05-19 09:39:00+00:00,212.9714,7.45,11.77,47.84626,-54.09684
2022-05-19 09:49:00+00:00,212.7231,7.42,11.77,47.84626,-54.09684
2022-05-19 09:59:00+00:00,213.9914,7.4,11.77,47.84626,-54.09684
2022-05-19 10:09:00+00:00,217.6848,7.4,11.77,47.84626,-54.09684
2022-05-19 10:19:00+00:00,220.1714,7.4,11.86,47.84626,-54.09684
2022-05-19 10:29:00+00:00,222.8364,7.4,11.86,47.84626,-54.09684
2022-05-19 10:39:00+00:00,227.4581,7.4,11.86,47.84626,-54.09684
2022-05-19 10:49:00+00:00,232.0147,7.4,11.86,47.84626,-54.09684
2022-05-19 10:59:00+00:00,237.3831,7.4,11.86,47.84626,-54.09684
2022-05-19 11:09:00+00:00,247.8614,7.4,11.86,47.84626,-54.09684
2022-05-19 11:19:00+00:00,255.6198,7.4,11.93,47.84626,-54.09684
2022-05-19 11:29:00+00:00,258.4698,7.4,11.93,47.84626,-54.09684
2022-05-19 11:39:00+00:00,265.3698,7.4,11.93,47.84626,-54.09684
2022-05-19 11:49:00+00:00,275.683,7.4,11.93,47.84626,-54.09684
2022-05-19 11:59:00+00:00,281.9414,7.4,11.93,47.84626,-54.09684
2022-05-19 12:09:00+00:00,286.4097,7.4,11.93,47.84626,-54.09684
2022-05-19 12:19:01+00:00,298.1297,7.4,11.93,47.84626,-54.09684
2022-05-19 12:29:01+00:00,308.5663,7.4,11.93,47.84626,-54.09684
2022-05-19 12:39:01+00:00,313.5463,7.4,11.93,47.84626,-54.09684
2022-05-19 12:49:01+00:00,319.6913,7.4,11.93,47.84626,-54.09684
2022-05-19 12:59:01+00:00,328.48800000000006,7.39,11.93,47.84626,-54.09684
2022-05-19 13:09:01+00:00,332.793,7.37,11.93,47.84626,-54.09684
2022-05-19 13:19:00+00:00,333.8746,7.37,11.93,47.84626,-54.09684
2022-05-19 13:29:00+00:00,341.0396,7.37,11.93,47.84626,-54.09684
2022-05-19 13:39:00+00:00,346.5679,7.35,11.93,47.84626,-54.09684
2022-05-19 13:49:00+00:00,343.5446,7.35,11.93,47.84626,-54.09684
2022-05-19 13:59:00+00:00,343.6447,7.3,11.93,47.84626,-54.09684
2022-05-19 14:09:00+00:00,349.9113,7.3,11.93,47.84626,-54.09684
2022-05-19 14:19:00+00:00,349.74300000000005,7.3,12.01,47.84626,-54.09684
2022-05-19 14:29:00+00:00,344.473,7.3,12.01,47.84626,-54.09684
2022-05-19 14:39:00+00:00,348.1346,7.3,12.01,47.84626,-54.09684
2022-05-19 14:49:00+00:00,350.2113,7.3,12.01,47.84626,-54.09684
2022-05-19 14:59:00+00:00,343.55300000000005,7.3,12.01,47.84626,-54.09684
2022-05-19 15:09:00+00:00,342.4479,7.3,12.01,47.84626,-54.09684
2022-05-19 15:19:00+00:00,346.3113,7.3,12.09,47.84626,-54.09684
2022-05-19 15:29:00+00:00,342.9346,7.3,12.09,47.84626,-54.09684
2022-05-19 15:39:00+00:00,336.3013,7.3,12.09,47.84626,-54.09684
2022-05-19 15:49:00+00:00,333.413,7.3,12.09,47.84626,-54.09684
2022-05-19 15:59:00+00:00,328.903,7.3,12.09,47.84626,-54.09684
2022-05-19 16:09:00+00:00,320.2463,7.3,12.09,47.84626,-54.09684
2022-05-19 16:19:01+00:00,310.358,7.3,12.01,47.84626,-54.09684
2022-05-19 16:29:01+00:00,304.6913,7.3,12.01,47.84626,-54.09684
2022-05-19 16:39:01+00:00,297.2347,7.3,12.01,47.84626,-54.09684
2022-05-19 16:49:01+00:00,287.8531,7.3,12.01,47.84626,-54.09684
2022-05-19 16:59:01+00:00,279.3881,7.3,12.01,47.84626,-54.09684
2022-05-19 17:09:01+00:00,273.3881,7.3,12.01,47.84626,-54.09684
2022-05-19 17:19:00+00:00,264.7181,7.3,12.09,47.84626,-54.09684
2022-05-19 17:29:00+00:00,252.3364,7.3,12.09,47.84626,-54.09684
2022-05-19 17:39:00+00:00,242.4048,7.3,12.09,47.84626,-54.09684
2022-05-19 17:49:00+00:00,233.5481,7.3,12.09,47.84626,-54.09684
2022-05-19 17:59:00+00:00,224.0732,7.3,12.09,47.84626,-54.09684
2022-05-19 18:09:00+00:00,212.9714,7.3,12.09,47.84626,-54.09684
2022-05-19 18:19:00+00:00,204.3531,7.34,12.09,47.84626,-54.09684
2022-05-19 18:29:00+00:00,198.0548,7.36,12.09,47.84626,-54.09684
2022-05-19 18:39:00+00:00,195.4414,7.38,12.09,47.84626,-54.09684
2022-05-19 18:49:00+00:00,192.5348,7.39,12.09,47.84626,-54.09684
2022-05-19 18:59:00+00:00,188.6048,7.4,12.09,47.84626,-54.09684
2022-05-19 19:09:00+00:00,188.4115,7.4,12.09,47.84626,-54.09684
2022-05-19 19:19:00+00:00,189.3431,7.4,12.09,47.84626,-54.09684
2022-05-19 19:29:00+00:00,185.2881,7.46,12.09,47.84626,-54.09684
2022-05-19 19:39:00+00:00,181.7964,7.5,12.09,47.84626,-54.09684
2022-05-19 19:49:00+00:00,182.9415,7.5,12.09,47.84626,-54.09684
2022-05-19 19:59:00+00:00,182.9365,7.44,12.09,47.84626,-54.09684
2022-05-19 20:09:00+00:00,183.9998,7.49,12.09,47.84626,-54.09684
2022-05-19 20:19:00+00:00,189.9748,7.5,12.01,47.84626,-54.09684
2022-05-19 20:29:00+00:00,195.7198,7.5,12.01,47.84626,-54.09684
2022-05-19 20:39:00+00:00,198.6115,7.5,12.01,47.84626,-54.09684
2022-05-19 20:49:00+00:00,200.2464,7.5,12.01,47.84626,-54.09684
2022-05-19 20:59:00+00:00,202.5714,7.51,12.01,47.84626,-54.09684
2022-05-19 21:09:00+00:00,206.1781,7.55,12.01,47.84626,-54.09684
2022-05-19 21:19:00+00:00,212.1697,7.5,12.01,47.84626,-54.09684
2022-05-19 21:29:00+00:00,217.5782,7.5,12.01,47.84626,-54.09684
2022-05-19 21:39:00+00:00,220.5298,7.5,12.01,47.84626,-54.09684
2022-05-19 21:49:00+00:00,220.9914,7.5,12.01,47.84626,-54.09684
2022-05-19 21:59:00+00:00,223.0231,7.5,12.01,47.84626,-54.09684
2022-05-19 22:09:00+00:00,225.4148,7.48,12.01,47.84626,-54.09684
2022-05-19 22:19:01+00:00,227.4464,7.43,12.01,47.84626,-54.09684
2022-05-19 22:29:01+00:00,232.0764,7.4,12.01,47.84626,-54.09684
2022-05-19 22:39:01+00:00,239.1031,7.4,12.01,47.84626,-54.09684
2022-05-19 22:49:01+00:00,247.1698,7.3,12.01,47.84626,-54.09684
2022-05-19 22:59:01+00:00,255.1931,7.3,12.01,47.84626,-54.09684
2022-05-19 23:09:01+00:00,260.0331,7.3,12.01,47.84626,-54.09684
2022-05-19 23:19:00+00:00,264.4731,7.3,12.01,47.84626,-54.09684
2022-05-19 23:29:00+00:00,272.8581,7.3,12.01,47.84626,-54.09684
2022-05-19 23:39:00+00:00,283.123,7.3,12.01,47.84626,-54.09684
2022-05-19 23:49:00+00:00,291.7263,7.3,12.01,47.84626,-54.09684
2022-05-19 23:59:00+00:00,298.9147,7.3,12.01,47.84626,-54.09684
